Tracking 32963 objects as of 21-Jan-2026
HD Live streaming from Space Station
objects crossing your sky now

STARLINK-32350

Track STARLINK-32350 now!
10-day predictions
STARLINK-32350 is classified as:


NORAD ID: 61063
Int'l Code: 2024-164P
Perigee: 481.8 km
Apogee: 483.2 km
Inclination: 53.2 °
Period: 94.1 minutes
Semi major axis: 6853 km
RCS: Unknown
Launch date: September 13, 2024
Source: United States (US)
Launch site: AIR FORCE WESTERN TEST RANGE (AFWTR)
Your satellite tracking list
Your tracking list is empty




NASA's NSSDC Master Catalog

Two Line Element Set (TLE):
1 61063U 24164P   26020.98260046 -.00024200  00000-0 -80870-3 0  9994
2 61063  53.1604 312.6987 0001011 111.3130 248.7979 15.30155240 76179
Source of the keplerian elements: AFSPC